Time,TemperatureF,DewpointF,PressureIn,WindDirection,WindDirectionDegrees,WindSpeedMPH,WindSpeedGustMPH,Humidity,HourlyPrecipIn,Conditions,Clouds,dailyrainin,SoftwareType,DateUTC
2013-04-03 00:02:00,48.0,27.0,-100.00,North,-999,-999.0,-999.0,44,-99.99,,,-99.99,,2013-04-03 07:02:00,
2013-04-03 00:12:00,48.0,27.0,-100.00,North,-999,-999.0,-999.0,44,-99.99,,,-99.99,,2013-04-03 07:12:00,
2013-04-03 00:23:00,-999.0,-99.9,-100.00,SW,219,4.0,10.0,-999,-99.99,,,-99.99,,2013-04-03 07:23:00,
2013-04-03 00:32:00,48.0,27.0,-100.00,North,-999,-999.0,-999.0,44,-99.99,,,-99.99,,2013-04-03 07:32:00,
2013-04-03 00:43:00,-999.0,-99.9,-100.00,West,264,5.0,-999.0,-999,-99.99,,,-99.99,,2013-04-03 07:43:00,
2013-04-03 00:53:00,-999.0,-99.9,-100.00,West,264,5.0,-999.0,-999,-99.99,,,-99.99,,2013-04-03 07:53:00,
2013-04-03 01:04:00,-999.0,-99.9,-100.00,West,264,4.0,-999.0,-999,-99.99,,,-99.99,,2013-04-03 08:04:00,
2013-04-03 01:12:00,-999.0,-99.9,-100.00,West,264,4.0,-999.0,-999,-99.99,,,-99.99,,2013-04-03 08:12:00,
2013-04-03 01:22:00,47.0,27.0,-100.00,North,-999,-999.0,-999.0,46,-99.99,,,-99.99,,2013-04-03 08:22:00,
2013-04-03 01:33:00,-999.0,-99.9,-100.00,West,270,4.0,-999.0,-999,-99.99,,,-99.99,,2013-04-03 08:33:00,
2013-04-03 01:43:00,-999.0,-99.9,-100.00,West,270,4.0,-999.0,-999,-99.99,,,-99.99,,2013-04-03 08:43:00,
2013-04-03 01:52:00,46.0,28.0,-100.00,North,-999,-999.0,-999.0,49,-99.99,,,-99.99,,2013-04-03 08:52:00,
2013-04-03 02:02:00,-999.0,-99.9,-100.00,WSW,258,3.0,-999.0,-999,-99.99,,,-99.99,,2013-04-03 09:02:00,
2013-04-03 02:12:00,45.0,28.0,-100.00,North,-999,-999.0,-999.0,50,-99.99,,,-99.99,,2013-04-03 09:12:00,
2013-04-03 02:22:00,45.0,28.0,-100.00,North,-999,-999.0,-999.0,50,-99.99,,,-99.99,,2013-04-03 09:22:00,
2013-04-03 02:33:00,-999.0,-99.9,-100.00,WSW,258,3.0,-999.0,-999,-99.99,,,-99.99,,2013-04-03 09:33:00,
2013-04-03 02:42:00,46.0,28.0,-100.00,North,-999,-999.0,-999.0,48,-99.99,,,-99.99,,2013-04-03 09:42:00,
2013-04-03 02:52:00,46.0,28.0,-100.00,North,-999,-999.0,-999.0,48,-99.99,,,-99.99,,2013-04-03 09:52:00,
2013-04-03 03:03:00,-999.0,-99.9,-100.00,WSW,258,4.0,-999.0,-999,-99.99,,,-99.99,,2013-04-03 10:03:00,
2013-04-03 03:12:00,46.0,28.0,-100.00,North,-999,-999.0,-999.0,47,-99.99,,,-99.99,,2013-04-03 10:12:00,
2013-04-03 03:22:00,-999.0,-99.9,-100.00,WSW,258,4.0,-999.0,-999,-99.99,,,-99.99,,2013-04-03 10:22:00,
2013-04-03 03:33:00,-999.0,-99.9,-100.00,WSW,258,4.0,-999.0,-999,-99.99,,,-99.99,,2013-04-03 10:33:00,
2013-04-03 03:42:00,46.0,27.0,-100.00,North,-999,-999.0,-999.0,47,-99.99,,,-99.99,,2013-04-03 10:42:00,
2013-04-03 03:52:00,46.0,27.0,-100.00,North,-999,-999.0,-999.0,47,-99.99,,,-99.99,,2013-04-03 10:52:00,
2013-04-03 04:03:00,-999.0,-99.9,-100.00,WSW,258,5.0,-999.0,-999,-99.99,,,-99.99,,2013-04-03 11:03:00,
2013-04-03 04:12:00,47.0,27.0,-100.00,North,-999,-999.0,-999.0,45,-99.99,,,-99.99,,2013-04-03 11:12:00,
2013-04-03 04:23:00,-999.0,-99.9,-100.00,WNW,286,5.0,-999.0,-999,-99.99,,,-99.99,,2013-04-03 11:23:00,
2013-04-03 04:33:00,-999.0,-99.9,-100.00,WNW,286,5.0,-999.0,-999,-99.99,,,-99.99,,2013-04-03 11:33:00,
2013-04-03 04:43:00,-999.0,-99.9,-100.00,WSW,247,5.0,-999.0,-999,-99.99,,,-99.99,,2013-04-03 11:43:00,
2013-04-03 04:53:00,-999.0,-99.9,-100.00,WSW,247,5.0,-999.0,-999,-99.99,,,-99.99,,2013-04-03 11:53:00,
2013-04-03 05:02:00,47.0,26.0,-100.00,North,-999,-999.0,-999.0,43,-99.99,,,-99.99,,2013-04-03 12:02:00,
2013-04-03 05:32:00,46.0,25.0,-100.00,North,-999,-999.0,-999.0,44,-99.99,,,-99.99,,2013-04-03 12:32:00,
2013-04-03 05:42:00,-999.0,-99.9,-100.00,West,281,3.0,-999.0,-999,-99.99,,,-99.99,,2013-04-03 12:42:00,
2013-04-03 05:53:00,-999.0,-99.9,-100.00,West,281,3.0,-999.0,-999,-99.99,,,-99.99,,2013-04-03 12:53:00,
2013-04-03 06:02:00,45.0,26.0,-100.00,North,-999,-999.0,-999.0,46,-99.99,,,-99.99,,2013-04-03 13:02:00,
2013-04-03 06:13:00,-999.0,-99.9,-100.00,NW,326,2.0,-999.0,-999,-99.99,,,-99.99,,2013-04-03 13:13:00,
2013-04-03 06:22:00,-999.0,-99.9,-100.00,NW,326,2.0,-999.0,-999,-99.99,,,-99.99,,2013-04-03 13:22:00,
2013-04-03 06:32:00,44.0,27.0,-100.00,North,-999,-999.0,-999.0,51,-99.99,,,-99.99,,2013-04-03 13:32:00,
2013-04-03 06:42:00,44.0,27.0,-100.00,North,-999,-999.0,-999.0,51,-99.99,,,-99.99,,2013-04-03 13:42:00,
2013-04-03 06:52:00,46.0,-99.9,-100.00,North,-999,-999.0,-999.0,-999,-99.99,,,-99.99,,2013-04-03 13:52:00,
2013-04-03 07:02:00,45.0,26.0,-100.00,North,-999,-999.0,-999.0,47,-99.99,,,-99.99,,2013-04-03 14:02:00,
2013-04-03 07:12:00,45.0,26.0,-100.00,North,-999,-999.0,-999.0,47,-99.99,,,-99.99,,2013-04-03 14:12:00,
2013-04-03 07:22:00,47.0,-99.9,-100.00,North,-999,-999.0,-999.0,-999,-99.99,,,-99.99,,2013-04-03 14:22:00,
2013-04-03 07:43:00,-999.0,-99.9,-100.00,NNE,28,1.0,-999.0,-999,-99.99,,,-99.99,,2013-04-03 14:43:00,
2013-04-03 07:52:00,49.0,24.0,-100.00,North,-999,-999.0,-999.0,37,-99.99,,,-99.99,,2013-04-03 14:52:00,
2013-04-03 08:02:00,49.0,24.0,-100.00,North,-999,-999.0,-999.0,37,-99.99,,,-99.99,,2013-04-03 15:02:00,
2013-04-03 08:22:00,52.0,24.0,-100.00,North,-999,-999.0,-999.0,32,-99.99,,,-99.99,,2013-04-03 15:22:00,
2013-04-03 08:33:00,-999.0,-99.9,-100.00,SSE,157,2.0,-999.0,-999,-99.99,,,-99.99,,2013-04-03 15:33:00,
2013-04-03 08:43:00,-999.0,-99.9,-100.00,SSE,157,2.0,-999.0,-999,-99.99,,,-99.99,,2013-04-03 15:43:00,
2013-04-03 08:53:00,53.0,23.0,-100.00,North,-999,-999.0,-999.0,30,-99.99,,,-99.99,,2013-04-03 15:53:00,
2013-04-03 09:02:00,53.0,23.0,-100.00,North,-999,-999.0,-999.0,30,-99.99,,,-99.99,,2013-04-03 16:02:00,
2013-04-03 09:12:00,53.0,22.0,-100.00,North,-999,-999.0,-999.0,29,-99.99,,,-99.99,,2013-04-03 16:12:00,
2013-04-03 09:23:00,53.0,22.0,-100.00,North,-999,-999.0,-999.0,29,-99.99,,,-99.99,,2013-04-03 16:23:00,
2013-04-03 09:44:00,-999.0,-99.9,-100.00,SW,236,2.0,-999.0,-999,-99.99,,,-99.99,,2013-04-03 16:44:00,
2013-04-03 09:53:00,-999.0,-99.9,-100.00,SW,236,2.0,-999.0,-999,-99.99,,,-99.99,,2013-04-03 16:53:00,
2013-04-03 10:03:00,-999.0,-99.9,-100.00,SW,236,2.0,-999.0,-999,-99.99,,,-99.99,,2013-04-03 17:03:00,
2013-04-03 10:12:00,57.0,21.0,-100.00,North,-999,-999.0,-999.0,24,-99.99,,,-99.99,,2013-04-03 17:12:00,
2013-04-03 10:22:00,57.0,21.0,-100.00,North,-999,-999.0,-999.0,24,-99.99,,,-99.99,,2013-04-03 17:22:00,
2013-04-03 10:35:00,-999.0,-99.9,-100.00,ESE,123,3.0,-999.0,-999,-99.99,,,-99.99,,2013-04-03 17:35:00,
2013-04-03 10:45:00,57.0,22.0,-100.00,North,-999,-999.0,-999.0,25,-99.99,,,-99.99,,2013-04-03 17:45:00,
2013-04-03 10:53:00,57.0,22.0,-100.00,North,-999,-999.0,-999.0,25,-99.99,,,-99.99,,2013-04-03 17:53:00,
2013-04-03 11:03:00,-999.0,-99.9,-100.00,ENE,61,4.0,-999.0,-999,-99.99,,,-99.99,,2013-04-03 18:03:00,
2013-04-03 11:12:00,58.0,22.0,-100.00,North,-999,-999.0,-999.0,24,-99.99,,,-99.99,,2013-04-03 18:12:00,
2013-04-03 11:23:00,-999.0,-99.9,-100.00,East,101,4.0,-999.0,-999,-99.99,,,-99.99,,2013-04-03 18:23:00,
2013-04-03 11:43:00,-999.0,-99.9,-100.00,SE,146,3.0,-999.0,-999,-99.99,,,-99.99,,2013-04-03 18:43:00,
2013-04-03 11:52:00,-999.0,-99.9,-100.00,SE,146,3.0,-999.0,-999,-99.99,,,-99.99,,2013-04-03 18:52:00,
2013-04-03 12:02:00,59.0,18.0,-100.00,North,-999,-999.0,-999.0,20,-99.99,,,-99.99,,2013-04-03 19:02:00,
2013-04-03 12:13:00,-999.0,-99.9,-100.00,ESE,112,4.0,-999.0,-999,-99.99,,,-99.99,,2013-04-03 19:13:00,
2013-04-03 12:22:00,-999.0,-99.9,-100.00,ESE,112,4.0,-999.0,-999,-99.99,,,-99.99,,2013-04-03 19:22:00,
2013-04-03 12:32:00,59.0,19.0,-100.00,North,-999,-999.0,-999.0,20,-99.99,,,-99.99,,2013-04-03 19:32:00,
2013-04-03 12:42:00,-999.0,-99.9,-100.00,East,84,4.0,-999.0,-999,-99.99,,,-99.99,,2013-04-03 19:42:00,
2013-04-03 13:02:00,59.0,17.0,-100.00,North,-999,-999.0,-999.0,18,-99.99,,,-99.99,,2013-04-03 20:02:00,
2013-04-03 13:12:00,59.0,17.0,-100.00,North,-999,-999.0,-999.0,18,-99.99,,,-99.99,,2013-04-03 20:12:00,
2013-04-03 13:22:00,59.0,17.0,-100.00,North,-999,-999.0,-999.0,18,-99.99,,,-99.99,,2013-04-03 20:22:00,
2013-04-03 13:33:00,-999.0,-99.9,-100.00,ENE,78,4.0,-999.0,-999,-99.99,,,-99.99,,2013-04-03 20:33:00,
2013-04-03 13:43:00,63.0,-99.9,-100.00,North,-999,-999.0,-999.0,-999,-99.99,,,-99.99,,2013-04-03 20:43:00,
2013-04-03 13:54:00,63.0,-99.9,-100.00,North,-999,-999.0,-999.0,-999,-99.99,,,-99.99,,2013-04-03 20:54:00,
2013-04-03 14:02:00,63.0,17.0,-100.00,North,-999,-999.0,-999.0,17,-99.99,,,-99.99,,2013-04-03 21:02:00,
2013-04-03 14:12:00,63.0,17.0,-100.00,North,-999,-999.0,-999.0,17,-99.99,,,-99.99,,2013-04-03 21:12:00,
2013-04-03 14:22:00,63.0,17.0,-100.00,North,-999,-999.0,-999.0,17,-99.99,,,-99.99,,2013-04-03 21:22:00,
2013-04-03 14:32:00,63.0,17.0,-100.00,North,-999,-999.0,-999.0,17,-99.99,,,-99.99,,2013-04-03 21:32:00,
2013-04-03 14:43:00,65.0,-99.9,-100.00,North,-999,-999.0,-999.0,-999,-99.99,,,-99.99,,2013-04-03 21:43:00,
2013-04-03 14:52:00,62.0,18.0,-100.00,North,-999,-999.0,-999.0,18,-99.99,,,-99.99,,2013-04-03 21:52:00,
2013-04-03 15:02:00,62.0,18.0,-100.00,North,-999,-999.0,-999.0,18,-99.99,,,-99.99,,2013-04-03 22:02:00,
2013-04-03 15:13:00,64.0,-99.9,-100.00,North,-999,-999.0,-999.0,-999,-99.99,,,-99.99,,2013-04-03 22:13:00,
2013-04-03 15:22:00,64.0,20.0,-100.00,North,-999,-999.0,-999.0,17,-99.99,,,-99.99,,2013-04-03 22:22:00,
2013-04-03 15:33:00,-999.0,-99.9,-100.00,SW,225,2.0,-999.0,-999,-99.99,,,-99.99,,2013-04-03 22:33:00,
2013-04-03 15:42:00,67.0,-99.9,-100.00,North,-999,-999.0,-999.0,-999,-99.99,,,-99.99,,2013-04-03 22:42:00,
2013-04-03 15:52:00,64.0,17.0,-100.00,North,-999,-999.0,-999.0,16,-99.99,,,-99.99,,2013-04-03 22:52:00,
2013-04-03 16:02:00,-999.0,-99.9,-100.00,West,275,3.0,-999.0,-999,-99.99,,,-99.99,,2013-04-03 23:02:00,
2013-04-03 16:12:00,63.0,19.0,-100.00,North,-999,-999.0,-999.0,18,-99.99,,,-99.99,,2013-04-03 23:12:00,
2013-04-03 16:22:00,63.0,19.0,-100.00,North,-999,-999.0,-999.0,18,-99.99,,,-99.99,,2013-04-03 23:22:00,
2013-04-03 16:33:00,-999.0,-99.9,-100.00,WSW,247,4.0,-999.0,-999,-99.99,,,-99.99,,2013-04-03 23:33:00,
2013-04-03 16:42:00,63.0,18.0,-100.00,North,-999,-999.0,-999.0,17,-99.99,,,-99.99,,2013-04-03 23:42:00,
2013-04-03 16:52:00,63.0,18.0,-100.00,North,-999,-999.0,-999.0,17,-99.99,,,-99.99,,2013-04-03 23:52:00,
2013-04-03 17:02:00,63.0,18.0,-100.00,North,-999,-999.0,-999.0,17,-99.99,,,-99.99,,2013-04-04 00:02:00,
2013-04-03 17:12:00,63.0,19.0,-100.00,North,-999,-999.0,-999.0,17,-99.99,,,-99.99,,2013-04-04 00:12:00,
2013-04-03 17:22:00,-999.0,-99.9,-100.00,West,264,4.0,-999.0,-999,-99.99,,,-99.99,,2013-04-04 00:22:00,
2013-04-03 17:33:00,-999.0,-99.9,-100.00,West,264,4.0,-999.0,-999,-99.99,,,-99.99,,2013-04-04 00:33:00,
2013-04-03 17:42:00,63.0,16.0,-100.00,North,-999,-999.0,-999.0,16,-99.99,,,-99.99,,2013-04-04 00:42:00,
2013-04-03 17:53:00,-999.0,-99.9,-100.00,WSW,253,4.0,-999.0,-999,-99.99,,,-99.99,,2013-04-04 00:53:00,
2013-04-03 18:02:00,-999.0,-99.9,-100.00,WSW,253,4.0,-999.0,-999,-99.99,,,-99.99,,2013-04-04 01:02:00,
2013-04-03 18:12:00,-999.0,-99.9,-100.00,WSW,258,3.0,-999.0,-999,-99.99,,,-99.99,,2013-04-04 01:12:00,
2013-04-03 18:22:00,59.0,-99.9,-100.00,North,-999,-999.0,-999.0,-999,-99.99,,,-99.99,,2013-04-04 01:22:00,
2013-04-03 18:32:00,59.0,-99.9,-100.00,North,-999,-999.0,-999.0,-999,-99.99,,,-99.99,,2013-04-04 01:32:00,
2013-04-03 18:43:00,57.0,19.0,-100.00,North,-999,-999.0,-999.0,22,-99.99,,,-99.99,,2013-04-04 01:43:00,
2013-04-03 18:52:00,57.0,19.0,-100.00,North,-999,-999.0,-999.0,22,-99.99,,,-99.99,,2013-04-04 01:52:00,
2013-04-03 19:02:00,-999.0,-99.9,-100.00,SW,236,3.0,-999.0,-999,-99.99,,,-99.99,,2013-04-04 02:02:00,
2013-04-03 19:12:00,-999.0,-99.9,-100.00,SW,236,3.0,-999.0,-999,-99.99,,,-99.99,,2013-04-04 02:12:00,
2013-04-03 19:22:00,-999.0,-99.9,-100.00,SW,236,3.0,-999.0,-999,-99.99,,,-99.99,,2013-04-04 02:22:00,
2013-04-03 19:33:00,-999.0,-99.9,-100.00,West,264,2.0,-999.0,-999,-99.99,,,-99.99,,2013-04-04 02:33:00,
2013-04-03 19:42:00,-999.0,-99.9,-100.00,West,264,2.0,-999.0,-999,-99.99,,,-99.99,,2013-04-04 02:42:00,
2013-04-03 19:53:00,-999.0,-99.9,-100.00,West,264,2.0,-999.0,-999,-99.99,,,-99.99,,2013-04-04 02:53:00,
2013-04-03 20:02:00,54.0,15.0,-100.00,North,-999,-999.0,-999.0,20,-99.99,,,-99.99,,2013-04-04 03:02:00,
2013-04-03 20:12:00,-999.0,-99.9,-100.00,West,281,3.0,-999.0,-999,-99.99,,,-99.99,,2013-04-04 03:12:00,
2013-04-03 20:23:00,-999.0,-99.9,-100.00,West,281,3.0,-999.0,-999,-99.99,,,-99.99,,2013-04-04 03:23:00,
2013-04-03 20:33:00,53.0,16.0,-100.00,North,-999,-999.0,-999.0,23,-99.99,,,-99.99,,2013-04-04 03:33:00,
2013-04-03 20:45:00,-999.0,-99.9,-100.00,West,281,3.0,-999.0,-999,-99.99,,,-99.99,,2013-04-04 03:45:00,
2013-04-03 20:54:00,-999.0,-99.9,-100.00,West,281,3.0,-999.0,-999,-99.99,,,-99.99,,2013-04-04 03:54:00,
2013-04-03 21:02:00,52.0,18.0,-100.00,North,-999,-999.0,-999.0,25,-99.99,,,-99.99,,2013-04-04 04:02:00,
2013-04-03 21:13:00,-999.0,-99.9,-100.00,WSW,258,3.0,-999.0,-999,-99.99,,,-99.99,,2013-04-04 04:13:00,
2013-04-03 21:23:00,-999.0,-99.9,-100.00,WSW,258,3.0,-999.0,-999,-99.99,,,-99.99,,2013-04-04 04:23:00,
2013-04-03 21:34:00,-999.0,-99.9,-100.00,West,270,4.0,-999.0,-999,-99.99,,,-99.99,,2013-04-04 04:34:00,
2013-04-03 21:43:00,-999.0,-99.9,-100.00,West,270,4.0,-999.0,-999,-99.99,,,-99.99,,2013-04-04 04:43:00,
2013-04-03 21:53:00,-999.0,-99.9,-100.00,West,270,4.0,-999.0,-999,-99.99,,,-99.99,,2013-04-04 04:53:00,
2013-04-03 22:03:00,-999.0,-99.9,-100.00,West,270,4.0,-999.0,-999,-99.99,,,-99.99,,2013-04-04 05:03:00,
2013-04-03 22:22:00,52.0,20.0,-100.00,North,-999,-999.0,-999.0,28,-99.99,,,-99.99,,2013-04-04 05:22:00,
2013-04-03 22:32:00,52.0,20.0,-100.00,North,-999,-999.0,-999.0,28,-99.99,,,-99.99,,2013-04-04 05:32:00,
2013-04-03 22:42:00,52.0,20.0,-100.00,North,-999,-999.0,-999.0,28,-99.99,,,-99.99,,2013-04-04 05:42:00,
2013-04-03 22:53:00,-999.0,-99.9,-100.00,West,275,3.0,-999.0,-999,-99.99,,,-99.99,,2013-04-04 05:53:00,
2013-04-03 23:03:00,-999.0,-99.9,-100.00,West,275,3.0,-999.0,-999,-99.99,,,-99.99,,2013-04-04 06:03:00,
2013-04-03 23:12:00,51.0,15.0,-100.00,North,-999,-999.0,-999.0,23,-99.99,,,-99.99,,2013-04-04 06:12:00,
2013-04-03 23:22:00,51.0,15.0,-100.00,North,-999,-999.0,-999.0,23,-99.99,,,-99.99,,2013-04-04 06:22:00,
2013-04-03 23:33:00,-999.0,-99.9,-100.00,West,270,3.0,-999.0,-999,-99.99,,,-99.99,,2013-04-04 06:33:00,
2013-04-03 23:42:00,52.0,17.0,-100.00,North,-999,-999.0,-999.0,23,-99.99,,,-99.99,,2013-04-04 06:42:00,
2013-04-03 23:52:00,52.0,17.0,-100.00,North,-999,-999.0,-999.0,23,-99.99,,,-99.99,,2013-04-04 06:52:00,